Terminal Aerodrome Forecast
Issued by NWS Denver/Boulder, CO

Home | Current Version | Previous Version | Text Only | Print | Product List | Glossary On
Versions: 1 2 3 4 5 6 7 8 9 10 11 12 13 14 15 16 17 18 19 20 21 22 23 24 25 26 27 28 29 30 31 32 33 34 35 36 37 38 39 40 41 42 43 44 45 46 47 48 49 50
435
FTUS45 KBOU 090308 AAA
TAFDEN
TAF AMD
KDEN 090308Z 0903/1006 VRB04KT P6SM SCT140 BKN220
     FM090500 15006KT P6SM SCT120 BKN200
     FM090700 19006KT P6SM SCT120 BKN200
     FM091400 VRB05KT P6SM FEW100 SCT180
     FM091800 13007KT P6SM FEW080 SCT150
     FM100300 20007KT P6SM SCT080 BKN150=

USA.gov is the U.S. government's official web portal to all federal, state and local government web resources and services.